| time (UTC) | temp C | wind direction | speed KPH | gust KPH | rain 1hr cm | rain 24hr cm | rain mn cm | humidity % | barometer mb |
| 20260504224347 | 21 | 171 | 1.6 | 6.4 | 0.00 | 0.00 | 0.00 | 31 | 1005.9 |
| 20260504223843 | 21 | 164 | 1.6 | 6.4 | 0.00 | 0.00 | 0.00 | 31 | 1005.9 |
| 20260504223339 | 21 | 157 | 4.8 | 11.3 | 0.00 | 0.00 | 0.00 | 31 | 1005.9 |
| 20260504222836 | 21 | 163 | 6.4 | 6.4 | 0.00 | 0.00 | 0.00 | 31 | 1005.8 |
| 20260504222332 | 21 | 167 | 1.6 | 4.8 | 0.00 | 0.00 | 0.00 | 31 | 1005.8 |
| 20260504221831 | 21 | 152 | 3.2 | 4.8 | 0.00 | 0.00 | 0.00 | 31 | 1005.8 |
| 20260504221327 | 21 | 164 | 4.8 | 4.8 | 0.00 | 0.00 | 0.00 | 31 | 1005.6 |
| 20260504220825 | 21 | 185 | 4.8 | 14.5 | 0.00 | 0.00 | 0.00 | 30 | 1005.7 |
| 20260504220321 | 22 | 163 | 6.4 | 11.3 | 0.00 | 0.00 | 0.00 | 30 | 1005.8 |
| 20260504215819 | 22 | 192 | 3.2 | 9.7 | 0.00 | 0.00 | 0.00 | 31 | 1005.9 |
| 20260504215315 | 22 | 187 | 4.8 | 11.3 | 0.00 | 0.00 | 0.00 | 30 | 1005.7 |
| 20260504214811 | 22 | 203 | 1.6 | 4.8 | 0.00 | 0.00 | 0.00 | 30 | 1005.7 |
| 20260504214308 | 22 | 142 | 1.6 | 4.8 | 0.00 | 0.00 | 0.00 | 30 | 1005.8 |
| 20260504213804 | 21 | 183 | 4.8 | 12.9 | 0.00 | 0.00 | 0.00 | 30 | 1005.7 |
| 20260504213300 | 21 | 179 | 4.8 | 14.5 | 0.00 | 0.00 | 0.00 | 30 | 1005.8 |
| 20260504212758 | 21 | 201 | 6.4 | 14.5 | 0.00 | 0.00 | 0.00 | 30 | 1005.7 |
| 20260504212254 | 22 | 126 | 3.2 | 6.4 | 0.00 | 0.00 | 0.00 | 30 | 1005.8 |
| 20260504211752 | 22 | 157 | 3.2 | 4.8 | 0.00 | 0.00 | 0.00 | 29 | 1005.8 |
| 20260504211247 | 22 | 194 | 11.3 | 20.9 | 0.00 | 0.00 | 0.00 | 29 | 1006.0 |
| 20260504210745 | 22 | 224 | 3.2 | 12.9 | 0.00 | 0.00 | 0.00 | 29 | 1005.7 |
| 20260504210242 | 22 | 172 | 1.6 | 12.9 | 0.00 | 0.00 | 0.00 | 29 | 1005.9 |
| 20260504205739 | 22 | 167 | 9.7 | 17.7 | 0.00 | 0.00 | 0.00 | 28 | 1005.8 |
| 20260504205237 | 22 | 205 | 4.8 | 4.8 | 0.00 | 0.00 | 0.00 | 29 | 1005.8 |
| 20260504204735 | 23 | 205 | 3.2 | 4.8 | 0.00 | 0.00 | 0.00 | 28 | 1005.7 |
| 20260504204233 | 23 | 195 | 6.4 | 9.7 | 0.00 | 0.00 | 0.00 | 28 | 1005.7 |
| 20260504203732 | 23 | 195 | 9.7 | 12.9 | 0.00 | 0.00 | 0.00 | 26 | 1005.8 |
| 20260504203229 | 23 | 155 | 4.8 | 6.4 | 0.00 | 0.00 | 0.00 | 28 | 1005.8 |
| 20260504202729 | 22 | 162 | 4.8 | 11.3 | 0.00 | 0.00 | 0.00 | 28 | 1005.6 |
| 20260504202226 | 23 | 181 | 1.6 | 12.9 | 0.00 | 0.00 | 0.00 | 28 | 1005.8 |
| 20260504201724 | 23 | 148 | 6.4 | 12.9 | 0.00 | 0.00 | 0.00 | 27 | 1005.8 |
| 20260504201221 | 22 | 162 | 3.2 | 12.9 | 0.00 | 0.00 | 0.00 | 28 | 1005.7 |
| 20260504200718 | 23 | 187 | 12.9 | 16.1 | 0.00 | 0.00 | 0.00 | 26 | 1005.8 |
| 20260504200214 | 22 | 195 | 3.2 | 6.4 | 0.00 | 0.00 | 0.00 | 27 | 1005.7 |
| 20260504195711 | 23 | 189 | 6.4 | 11.3 | 0.00 | 0.00 | 0.00 | 27 | 1005.8 |
| 20260504195207 | 22 | 39 | 6.4 | 11.3 | 0.00 | 0.00 | 0.00 | 27 | 1005.7 |
| 20260504194704 | 22 | 16 | 6.4 | 11.3 | 0.00 | 0.00 | 0.00 | 27 | 1005.9 |
| 20260504194200 | 22 | 149 | 12.9 | 16.1 | 0.00 | 0.00 | 0.00 | 27 | 1006.0 |
| 20260504193656 | 22 | 18 | 4.8 | 17.7 | 0.00 | 0.00 | 0.00 | 27 | 1005.8 |
| 20260504193154 | 23 | 195 | 6.4 | 9.7 | 0.00 | 0.00 | 0.00 | 28 | 1005.7 |
| 20260504192652 | 23 | 169 | 3.2 | 11.3 | 0.00 | 0.00 | 0.00 | 27 | 1005.9 |
| 20260504192150 | 23 | 193 | 6.4 | 12.9 | 0.00 | 0.00 | 0.00 | 27 | 1005.9 |
| 20260504191648 | 23 | 192 | 9.7 | 14.5 | 0.00 | 0.00 | 0.00 | 26 | 1006.0 |
| 20260504191144 | 23 | 193 | 3.2 | 4.8 | 0.00 | 0.00 | 0.00 | 26 | 1006.1 |
| 20260504190640 | 22 | 158 | 8.0 | 12.9 | 0.00 | 0.00 | 0.00 | 27 | 1006.0 |
| 20260504190137 | 23 | 193 | 9.7 | 22.5 | 0.00 | 0.00 | 0.00 | 26 | 1006.1 |
| 20260504185633 | 23 | 203 | 6.4 | 12.9 | 0.00 | 0.00 | 0.00 | 26 | 1005.9 |
| 20260504185130 | 22 | 191 | 1.6 | 9.7 | 0.00 | 0.00 | 0.00 | 27 | 1006.3 |
| 20260504184626 | 22 | 198 | 8.0 | 12.9 | 0.00 | 0.00 | 0.00 | 26 | 1006.1 |
| 20260504184121 | 22 | 165 | 12.9 | 22.5 | 0.00 | 0.00 | 0.00 | 26 | 1006.5 |
| 20260504183619 | 22 | 176 | 4.8 | 17.7 | 0.00 | 0.00 | 0.00 | 26 | 1006.3 |
| 20260504183116 | 22 | 218 | 1.6 | 16.1 | 0.00 | 0.00 | 0.00 | 27 | 1006.4 |
| 20260504182614 | 21 | 198 | 4.8 | 14.5 | 0.00 | 0.00 | 0.00 | 28 | 1006.3 |
| 20260504182111 | 22 | 218 | 3.2 | 17.7 | 0.00 | 0.00 | 0.00 | 27 | 1006.4 |
| 20260504181608 | 22 | 191 | 6.4 | 11.3 | 0.00 | 0.00 | 0.00 | 26 | 1006.5 |
| 20260504181106 | 22 | 146 | 3.2 | 20.9 | 0.00 | 0.00 | 0.00 | 28 | 1006.6 |
| 20260504180604 | 21 | 170 | 6.4 | 17.7 | 0.00 | 0.00 | 0.00 | 28 | 1006.6 |
| 20260504180103 | 21 | 193 | 4.8 | 17.7 | 0.00 | 0.00 | 0.00 | 27 | 1006.3 |
| 20260504175600 | 21 | 140 | 8.0 | 14.5 | 0.00 | 0.00 | 0.00 | 27 | 1006.5 |
| 20260504175056 | 21 | 183 | 4.8 | 14.5 | 0.00 | 0.00 | 0.00 | 28 | 1006.6 |
| 20260504174555 | 21 | 162 | 6.4 | 17.7 | 0.00 | 0.00 | 0.00 | 27 | 1006.7 |
| 20260504174051 | 21 | 287 | 9.7 | 16.1 | 0.00 | 0.00 | 0.00 | 27 | 1006.7 |
| 20260504173548 | 21 | 148 | 4.8 | 12.9 | 0.00 | 0.00 | 0.00 | 28 | 1006.5 |
| 20260504173045 | 22 | 190 | 4.8 | 16.1 | 0.00 | 0.00 | 0.00 | 27 | 1006.9 |
| 20260504172541 | 21 | 157 | 6.4 | 16.1 | 0.00 | 0.00 | 0.00 | 28 | 1006.9 |
| 20260504172038 | 21 | 125 | 6.4 | 12.9 | 0.00 | 0.00 | 0.00 | 28 | 1007.0 |
| 20260504171535 | 21 | 212 | 4.8 | 11.3 | 0.00 | 0.00 | 0.00 | 29 | 1007.1 |
| 20260504171032 | 21 | 168 | 6.4 | 20.9 | 0.00 | 0.00 | 0.00 | 28 | 1007.1 |
| 20260504170528 | 21 | 162 | 6.4 | 11.3 | 0.00 | 0.00 | 0.00 | 28 | 1007.0 |
| 20260504150912 | 18 | 145 | 8.0 | 9.7 | 0.00 | 0.00 | 0.00 | 33 | 1008.4 |
| 20260504150409 | 18 | 35 | 6.4 | 11.3 | 0.00 | 0.00 | 0.00 | 34 | 1008.4 |
| 20260504141130 | 17 | 183 | 9.7 | 14.5 | 0.00 | 0.00 | 0.00 | 35 | 1008.7 |
| 20260504140627 | 17 | 153 | 3.2 | 11.3 | 0.00 | 0.00 | 0.00 | 37 | 1008.8 |
| 20260504140122 | 17 | 340 | 8.0 | 12.9 | 0.00 | 0.00 | 0.00 | 37 | 1008.9 |
| 20260504130551 | 15 | 164 | 3.2 | 11.3 | 0.00 | 0.00 | 0.00 | 42 | 1009.7 |
| 20260504110438 | 8 | 145 | 1.6 | 11.3 | 0.00 | 0.00 | 0.00 | 56 | 1009.7 |
| 20260504100355 | 7 | 113 | 0.0 | 0.0 | 0.00 | 0.00 | 0.00 | 58 | 1010.0 |
| 20260504081748 | 6 | 48 | 0.0 | 0.0 | 0.00 | 0.00 | 0.00 | 64 | 1009.9 |
| 20260504081244 | 6 | 48 | 0.0 | 0.0 | 0.00 | 0.00 | 0.00 | 62 | 1009.9 |
| 20260504080741 | 6 | 63 | 0.0 | 0.0 | 0.00 | 0.00 | 0.00 | 62 | 1010.0 |
| 20260504080237 | 6 | 38 | 0.0 | 0.0 | 0.00 | 0.00 | 0.00 | 62 | 1010.0 |
| 20260504070205 | 6 | 144 | 0.0 | 0.0 | 0.00 | 0.00 | 0.00 | 57 | 1010.1 |
| 20260504060125 | 5 | 116 | 0.0 | 0.0 | 0.00 | 0.00 | 0.00 | 69 | 1009.9 |
| 20260504050554 | 3 | 65 | 0.0 | 0.0 | 0.00 | 0.00 | 0.00 | 81 | 1009.9 |
| 20260504045548 | 3 | 65 | 0.0 | 0.0 | 0.00 | 0.00 | 0.00 | 78 | 1010.0 |
| 20260504045043 | 3 | 66 | 0.0 | 0.0 | 0.00 | 0.00 | 0.00 | 77 | 1010.1 |
| 20260504044540 | 3 | 66 | 0.0 | 0.0 | 0.00 | 0.00 | 0.00 | 79 | 1010.1 |
| 20260504044037 | 3 | 66 | 0.0 | 0.0 | 0.00 | 0.00 | 0.00 | 79 | 1010.0 |
| 20260504043534 | 3 | 65 | 0.0 | 0.0 | 0.00 | 0.00 | 0.00 | 80 | 1010.2 |
| 20260504043032 | 3 | 66 | 0.0 | 0.0 | 0.00 | 0.00 | 0.00 | 80 | 1009.9 |
| 20260504042529 | 3 | 68 | 0.0 | 0.0 | 0.00 | 0.00 | 0.00 | 78 | 1010.0 |
| 20260504042026 | 3 | 72 | 0.0 | 0.0 | 0.00 | 0.00 | 0.00 | 77 | 1010.0 |
| 20260504041521 | 3 | 128 | 0.0 | 0.0 | 0.00 | 0.00 | 0.00 | 75 | 1010.1 |
| 20260504041017 | 3 | 132 | 0.0 | 0.0 | 0.00 | 0.00 | 0.00 | 72 | 1009.7 |
| 20260504040515 | 3 | 117 | 0.0 | 0.0 | 0.00 | 0.00 | 0.00 | 73 | 1010.1 |
| 20260504040012 | 3 | 83 | 0.0 | 0.0 | 0.00 | 0.13 | 0.13 | 74 | 1009.9 |
| 20260504035509 | 3 | 81 | 0.0 | 0.0 | 0.00 | 0.13 | 0.13 | 74 | 1010.0 |
| 20260504035005 | 3 | 61 | 0.0 | 0.0 | 0.00 | 0.13 | 0.13 | 75 | 1009.8 |
| 20260504034503 | 3 | 60 | 0.0 | 0.0 | 0.00 | 0.13 | 0.13 | 75 | 1009.7 |
| 20260504033959 | 3 | 60 | 0.0 | 0.0 | 0.00 | 0.13 | 0.13 | 74 | 1009.7 |
| 20260504033457 | 3 | 60 | 0.0 | 0.0 | 0.00 | 0.13 | 0.13 | 74 | 1009.7 |
| 20260504032954 | 3 | 60 | 0.0 | 0.0 | 0.00 | 0.13 | 0.13 | 73 | 1009.7 |
| 20260504032451 | 3 | 60 | 0.0 | 0.0 | 0.00 | 0.13 | 0.13 | 73 | 1009.6 |
| 20260504031948 | 4 | 62 | 0.0 | 0.0 | 0.00 | 0.13 | 0.13 | 71 | 1009.7 |
| 20260504031445 | 4 | 62 | 0.0 | 0.0 | 0.00 | 0.13 | 0.13 | 70 | 1009.5 |
| 20260504030941 | 4 | 62 | 0.0 | 0.0 | 0.00 | 0.13 | 0.13 | 70 | 1009.6 |
| 20260504030439 | 5 | 57 | 0.0 | 0.0 | 0.00 | 0.13 | 0.13 | 69 | 1009.6 |
| 20260504025934 | 5 | 147 | 0.0 | 0.0 | 0.00 | 0.13 | 0.13 | 66 | 1009.6 |
| 20260504025431 | 5 | 148 | 0.0 | 0.0 | 0.00 | 0.13 | 0.13 | 64 | 1009.4 |
| 20260504024928 | 5 | 154 | 0.0 | 1.6 | 0.00 | 0.13 | 0.13 | 64 | 1009.7 |
| 20260504024426 | 5 | 182 | 1.6 | 1.6 | 0.00 | 0.13 | 0.13 | 64 | 1009.5 |
| 20260504023922 | 5 | 183 | 0.0 | 1.6 | 0.00 | 0.13 | 0.13 | 64 | 1009.5 |
| 20260504023419 | 5 | 147 | 0.0 | 0.0 | 0.00 | 0.13 | 0.13 | 65 | 1009.4 |
| 20260504022914 | 5 | 142 | 0.0 | 0.0 | 0.00 | 0.13 | 0.13 | 65 | 1009.6 |
| 20260504022411 | 5 | 142 | 0.0 | 0.0 | 0.00 | 0.13 | 0.13 | 65 | 1009.5 |
| 20260504021908 | 5 | 142 | 0.0 | 0.0 | 0.00 | 0.13 | 0.13 | 65 | 1009.5 |
| 20260504021405 | 5 | 138 | 0.0 | 0.0 | 0.00 | 0.13 | 0.13 | 65 | 1009.5 |
| 20260504020903 | 6 | 140 | 0.0 | 0.0 | 0.00 | 0.13 | 0.13 | 64 | 1009.4 |
| 20260504020359 | 6 | 158 | 0.0 | 0.0 | 0.00 | 0.13 | 0.13 | 63 | 1009.4 |
| 20260504015855 | 6 | 158 | 0.0 | 0.0 | 0.00 | 0.13 | 0.13 | 63 | 1009.3 |
| 20260504015351 | 6 | 158 | 0.0 | 1.6 | 0.00 | 0.13 | 0.13 | 61 | 1009.4 |
| 20260504014847 | 5 | 142 | 0.0 | 0.0 | 0.00 | 0.13 | 0.13 | 63 | 1009.4 |
| 20260504014343 | 5 | 138 | 0.0 | 0.0 | 0.00 | 0.13 | 0.13 | 65 | 1009.2 |
| 20260504013841 | 5 | 136 | 0.0 | 0.0 | 0.00 | 0.13 | 0.13 | 63 | 1009.2 |
| 20260504013339 | 6 | 136 | 0.0 | 0.0 | 0.00 | 0.13 | 0.13 | 62 | 1009.1 |
| 20260504012835 | 6 | 136 | 0.0 | 0.0 | 0.00 | 0.13 | 0.13 | 62 | 1009.2 |
| 20260504012333 | 6 | 136 | 0.0 | 0.0 | 0.00 | 0.13 | 0.13 | 60 | 1008.8 |
| 20260504011830 | 6 | 136 | 0.0 | 0.0 | 0.00 | 0.13 | 0.13 | 59 | 1009.2 |
| 20260504011327 | 6 | 136 | 0.0 | 0.0 | 0.00 | 0.13 | 0.13 | 58 | 1009.0 |
| 20260504010823 | 6 | 136 | 0.0 | 0.0 | 0.00 | 0.13 | 0.13 | 58 | 1009.1 |
| 20260504010318 | 6 | 136 | 0.0 | 0.0 | 0.00 | 0.13 | 0.13 | 57 | 1008.9 |
| 20260504005815 | 7 | 136 | 0.0 | 0.0 | 0.00 | 0.13 | 0.13 | 56 | 1008.9 |
| 20260504005312 | 7 | 136 | 0.0 | 0.0 | 0.00 | 0.13 | 0.13 | 55 | 1008.8 |
| 20260504004810 | 7 | 136 | 0.0 | 0.0 | 0.00 | 0.13 | 0.13 | 55 | 1008.7 |
| 20260504004307 | 7 | 136 | 0.0 | 0.0 | 0.00 | 0.13 | 0.13 | 55 | 1008.6 |
| 20260504003803 | 7 | 136 | 0.0 | 0.0 | 0.00 | 0.13 | 0.13 | 54 | 1008.7 |
| 20260504003301 | 7 | 136 | 0.0 | 0.0 | 0.00 | 0.13 | 0.13 | 54 | 1008.6 |
| 20260504002757 | 7 | 136 | 0.0 | 0.0 | 0.00 | 0.13 | 0.13 | 53 | 1008.4 |
| 20260504002254 | 8 | 136 | 0.0 | 0.0 | 0.00 | 0.13 | 0.13 | 52 | 1008.7 |
| 20260504001752 | 8 | 135 | 0.0 | 0.0 | 0.00 | 0.13 | 0.13 | 51 | 1008.4 |
| 20260504001249 | 8 | 139 | 0.0 | 0.0 | 0.00 | 0.13 | 0.13 | 50 | 1008.3 |
| 20260504000745 | 8 | 140 | 0.0 | 0.0 | 0.00 | 0.13 | 0.13 | 47 | 1008.2 |
| 20260504000242 | 9 | 134 | 0.0 | 0.0 | 0.00 | 0.13 | 0.13 | 45 | 1008.2 |
| 20260503235740 | 9 | 175 | 0.0 | 0.0 | 0.00 | 0.13 | 0.13 | 45 | 1008.1 |
| 20260503235237 | 9 | 98 | 0.0 | 0.0 | 0.00 | 0.13 | 0.13 | 44 | 1008.3 |
| 20260503234735 | 10 | 345 | 0.0 | 0.0 | 0.00 | 0.13 | 0.13 | 43 | 1008.1 |
| 20260503234233 | 10 | 95 | 0.0 | 0.0 | 0.00 | 0.13 | 0.13 | 42 | 1008.0 |
| 20260503233730 | 10 | 34 | 1.6 | 1.6 | 0.00 | 0.13 | 0.13 | 42 | 1008.1 |
| 20260503233225 | 10 | 81 | 0.0 | 1.6 | 0.00 | 0.13 | 0.13 | 41 | 1007.9 |
| 20260503232722 | 10 | 21 | 0.0 | 0.0 | 0.00 | 0.13 | 0.13 | 41 | 1008.0 |
| 20260503232220 | 10 | 229 | 4.8 | 4.8 | 0.00 | 0.13 | 0.13 | 41 | 1007.8 |
| 20260503231718 | 10 | 46 | 3.2 | 4.8 | 0.00 | 0.13 | 0.13 | 39 | 1007.8 |
| 20260503231214 | 10 | 73 | 1.6 | 3.2 | 0.00 | 0.13 | 0.13 | 39 | 1007.9 |
| 20260503230710 | 11 | 206 | 1.6 | 4.8 | 0.00 | 0.13 | 0.13 | 39 | 1007.7 |
| 20260503230208 | 11 | 258 | 0.0 | 12.9 | 0.00 | 0.13 | 0.13 | 38 | 1007.8 |
| 20260503225705 | 11 | 71 | 0.0 | 11.3 | 0.00 | 0.13 | 0.13 | 38 | 1007.5 |
| 20260503225159 | 11 | 19 | 3.2 | 6.4 | 0.00 | 0.13 | 0.13 | 37 | 1007.8 |
| 20260503224657 | 11 | 109 | 3.2 | 6.4 | 0.00 | 0.13 | 0.13 | 38 | 1007.6 |